Torna al catalogo

USA 413

AttivoMilitareVLEO
NORAD 61034·PAYLOAD·🇺🇸 United States

Lanciato Sep 6, 2024 da Vandenberg Space Force Base

Loading…

Prossimi Passaggi (prossime 24 ore)

TLE

ObsoletoSource: Mike McCants

Epoca: Aug 25, 2026, 23:27 UTC

1 61034U 24160P   26237.97773290 0.00000000  00000-0  00000-0 0    04
2 61034  70.0150 196.7042 0002000 271.6502  88.3497 14.96713220    07

Traccia USA 413 in tempo reale con AllMySat

Download on the App Store